W5TTY Weather Reports


time (UTC)temp
C
wind
direction
speed
KPH
gust
KPH
rain 1hr
cm
rain 24hr
cm
rain mn
cm
humidity
%
barometer
mb
20260509213323 30 323 4.8 9.7 0.00 0.00 0.00 84 1007.8
20260509212826 30 345 3.2 12.9 0.00 0.00 0.00 84 1007.8
20260509212337 30 300 3.2 12.9 0.00 0.00 0.00 84 1007.9
20260509211843 30 274 6.4 16.1 0.00 0.00 0.00 85 1007.8
20260509211327 30 270 4.8 16.1 0.00 0.00 0.00 85 1007.9
20260509210825 29 297 4.8 8.0 0.00 0.00 0.00 85 1007.9
20260509210332 29 272 4.8 8.0 0.00 0.00 0.00 86 1008.0
20260509205905 29 321 3.2 6.4 0.00 0.00 0.00 85 1008.0
20260509205324 29 304 3.2 6.4 0.00 0.00 0.00 86 1008.1
20260509204827 29 289 3.2 6.4 0.00 0.00 0.00 86 1008.2
20260509204330 29 290 3.2 8.0 0.00 0.00 0.00 86 1008.3
20260509203835 29 300 3.2 8.0 0.00 0.00 0.00 86 1008.5
20260509203320 29 242 3.2 9.7 0.00 0.00 0.00 87 1008.6
20260509202826 29 241 4.8 9.7 0.00 0.00 0.00 87 1008.7
20260509202326 29 286 3.2 11.3 0.00 0.00 0.00 87 1008.8
20260509201834 29 283 4.8 11.3 0.00 0.00 0.00 87 1008.8
20260509201320 29 311 3.2 11.3 0.00 0.00 0.00 87 1008.9
20260509200823 29 308 4.8 11.3 0.00 0.00 0.00 88 1008.9
20260509200336 30 284 3.2 17.7 0.00 0.00 0.00 88 1008.8
20260509195843 30 247 4.8 17.7 0.00 0.00 0.00 88 1008.8
20260509195344 30 313 4.8 12.9 0.00 0.00 0.00 89 1008.9
20260509194825 29 242 4.8 12.9 0.00 0.00 0.00 89 1008.9
20260509194331 29 220 4.8 16.1 0.00 0.00 0.00 89 1008.9
20260509193835 29 246 4.8 14.5 0.00 0.00 0.00 89 1008.9
20260509193346 29 324 6.4 14.5 0.00 0.00 0.00 90 1008.9
20260509192820 29 269 6.4 14.5 0.00 0.00 0.00 90 1009.0
20260509192329 28 227 6.4 14.5 0.00 0.00 0.00 90 1009.1
20260509191854 28 267 6.4 12.9 0.00 0.00 0.00 90 1009.1
20260509191320 28 249 8.0 12.9 0.00 0.00 0.00 90 1009.3
20260509190822 28 217 1.6 9.7 0.00 0.00 0.00 91 1009.3
20260509190333 28 318 3.2 9.7 0.00 0.00 0.00 91 1009.5
20260509185831 28 312 3.2 11.3 0.00 0.00 0.00 91 1009.6
20260509185333 27 284 1.6 6.4 0.00 0.00 0.00 91 1009.6
20260509184819 27 286 0.0 8.0 0.00 0.00 0.00 91 1009.7
20260509184326 27 286 6.4 8.0 0.00 0.00 0.00 91 1009.8
20260509183825 27 307 1.6 8.0 0.00 0.00 0.00 91 1009.7
20260509183331 27 310 4.8 8.0 0.00 0.00 0.00 91 1009.8
20260509182820 27 246 6.4 8.0 0.00 0.00 0.00 91 1009.8
20260509182323 27 240 1.6 8.0 0.00 0.00 0.00 91 1009.9
20260509181836 27 244 4.8 14.5 0.00 0.00 0.00 91 1009.9
20260509181342 27 198 8.0 14.5 0.00 0.00 0.00 91 1010.0
20260509180824 27 240 1.6 12.9 0.00 0.00 0.00 92 1010.0
20260509180328 27 244 8.0 12.9 0.00 0.00 0.00 92 1010.2
20260509175834 27 197 3.2 9.7 0.00 0.00 0.00 91 1010.2
20260509175319 27 182 3.2 9.7 0.00 0.00 0.00 92 1010.3
20260509174826 27 271 4.8 9.7 0.00 0.00 0.00 92 1010.4
20260509174328 27 231 3.2 12.9 0.00 0.00 0.00 92 1010.3
20260509173833 27 202 4.8 12.9 0.00 0.00 0.00 92 1010.4
20260509173319 27 151 1.6 12.9 0.00 0.00 0.00 92 1010.4
20260509172821 27 242 6.4 12.9 0.00 0.00 0.00 92 1010.4
20260509172333 27 217 6.4 12.9 0.00 0.00 0.00 92 1010.4
20260509171854 27 158 4.8 11.3 0.00 0.00 0.00 92 1010.4
20260509171318 26 236 8.0 11.3 0.00 0.00 0.00 92 1010.4
20260509170845 26 263 1.6 11.3 0.00 0.00 0.00 92 1010.4
20260509170340 26 267 4.8 11.3 0.00 0.00 0.00 92 1010.5
20260509165845 26 222 6.4 11.3 0.00 0.00 0.00 92 1010.5
20260509165325 26 217 4.8 14.5 0.00 0.00 0.00 92 1010.7
20260509164826 25 242 6.4 14.5 0.00 0.00 0.00 92 1010.6
20260509164328 25 241 4.8 8.0 0.00 0.00 0.00 92 1010.6
20260509163842 25 232 3.2 9.7 0.00 0.00 0.00 92 1010.7
20260509163317 25 206 4.8 9.7 0.00 0.00 0.00 92 1010.7
20260509162850 24 234 4.8 8.0 0.00 0.00 0.00 92 1010.8
20260509162353 24 269 3.2 4.8 0.00 0.00 0.00 92 1011.0
20260509161903 24 269 3.2 6.4 0.00 0.00 0.00 92 1010.9
20260509161325 24 288 1.6 8.0 0.00 0.00 0.00 92 1011.0
20260509160828 24 311 3.2 6.4 0.00 0.00 0.00 92 1011.0
20260509160334 23 190 0.0 3.2 0.00 0.00 0.00 92 1010.9
20260509155821 23 188 0.0 4.8 0.00 0.00 0.00 92 1010.9
20260509155324 23 188 3.2 4.8 0.00 0.00 0.00 92 1010.9
20260509154855 23 186 0.0 1.6 0.00 0.00 0.00 92 1011.0
20260509154320 23 186 0.0 4.8 0.00 0.00 0.00 91 1011.0
20260509153827 23 186 1.6 4.8 0.00 0.00 0.00 91 1011.2
20260509153332 23 186 1.6 4.8 0.00 0.00 0.00 91 1011.3
20260509152838 23 186 1.6 4.8 0.00 0.00 0.00 91 1011.2
20260509152321 23 180 1.6 4.8 0.00 0.00 0.00 91 1011.1
20260509151825 23 173 1.6 6.4 0.00 0.00 0.00 91 1011.0
20260509151328 23 171 3.2 8.0 0.00 0.00 0.00 91 1011.0
20260509150840 23 162 3.2 9.7 0.00 0.00 0.00 91 1010.9
20260509150318 23 186 3.2 9.7 0.00 0.00 0.00 91 1010.9
20260509145826 23 222 0.0 6.4 0.00 0.00 0.00 91 1010.8
20260509145329 23 223 1.6 8.0 0.00 0.00 0.00 91 1010.7
20260509144835 23 223 3.2 8.0 0.00 0.00 0.00 91 1010.6
20260509144335 23 182 1.6 11.3 0.00 0.00 0.00 91 1010.5
20260509143821 23 200 4.8 11.3 0.00 0.00 0.00 91 1010.2
20260509143325 23 165 3.2 11.3 0.00 0.00 0.00 91 1010.0
20260509142829 23 171 4.8 11.3 0.00 0.00 0.00 91 1009.9
20260509142343 23 136 4.8 11.3 0.00 0.00 0.00 91 1010.0
20260509141849 23 153 3.2 8.0 0.00 0.00 0.00 91 1010.0
20260509141351 23 159 4.8 8.0 0.00 0.00 0.00 91 1009.9
20260509140837 23 224 0.0 4.8 0.00 0.00 0.00 91 1010.1
20260509140351 23 224 0.0 12.9 0.00 0.00 0.00 91 1010.1
20260509135835 23 224 3.2 12.9 0.00 0.00 0.00 91 1010.0
20260509135320 23 177 3.2 9.7 0.00 0.00 0.00 91 1009.9
20260509134822 23 227 1.6 11.3 0.00 0.00 0.00 91 1010.1
20260509134327 23 195 3.2 12.9 0.00 0.00 0.00 91 1010.0
20260509133835 22 216 6.4 11.3 0.00 0.00 0.00 91 1009.9
20260509133341 22 215 4.8 9.7 0.00 0.00 0.00 91 1009.8
20260509034817 22 174 3.2 6.4 0.00 0.97 0.97 87 1009.5
20260509034329 22 127 1.6 4.8 0.00 0.97 0.97 87 1009.6
20260509033835 22 127 3.2 9.7 0.00 0.97 0.97 87 1009.5
20260509033342 22 111 3.2 12.9 0.00 0.97 0.97 87 1009.1
20260509032828 23 137 4.8 12.9 0.00 0.97 0.97 87 1009.1
20260509032349 23 115 4.8 11.3 0.00 0.97 0.97 87 1009.1
20260509031842 23 97 4.8 11.3 0.00 0.97 0.97 87 1009.0
20260509031319 23 109 6.4 14.5 0.00 0.97 0.97 87 1009.0
20260509030831 23 135 6.4 16.1 0.00 0.97 0.97 87 1009.0
20260509030337 23 141 6.4 16.1 0.00 0.97 0.97 87 1008.9
20260509025823 23 126 4.8 14.5 0.00 0.97 0.97 87 1008.9
20260509025327 23 133 6.4 14.5 0.00 0.97 0.97 87 1008.8
20260509024829 23 144 6.4 14.5 0.00 0.97 0.97 87 1008.7
20260509024335 23 131 6.4 12.9 0.00 0.97 0.97 87 1008.7
20260509023822 23 161 3.2 9.7 0.00 0.97 0.97 87 1008.8
20260509023322 23 153 3.2 8.0 0.00 0.97 0.97 87 1008.8
20260509022828 23 151 3.2 6.4 0.00 0.97 0.97 87 1009.0
20260509022327 23 144 1.6 4.8 0.00 0.97 0.97 87 1008.9
20260509021843 23 144 1.6 4.8 0.00 0.97 0.97 87 1008.9
20260509021346 23 144 1.6 4.8 0.00 0.97 0.97 86 1008.8
20260509020828 23 145 3.2 8.0 0.00 0.97 0.97 86 1008.7
20260509020329 23 145 3.2 12.9 0.00 0.97 0.97 87 1008.6
20260509015832 23 163 3.2 12.9 0.00 0.97 0.97 87 1008.7
20260509015337 23 140 4.8 12.9 0.00 0.97 0.97 87 1008.7
20260509014849 23 139 4.8 12.9 0.00 0.97 0.97 87 1008.6
20260509014334 23 153 4.8 12.9 0.00 0.97 0.97 86 1008.6
20260509013820 23 142 6.4 12.9 0.00 0.97 0.97 86 1008.6
20260509013327 23 128 6.4 12.9 0.00 0.97 0.97 86 1008.6
20260509012829 23 130 4.8 11.3 0.00 0.97 0.97 86 1008.7
20260509012355 24 145 4.8 11.3 0.00 0.97 0.97 87 1008.7
20260509011839 24 136 4.8 12.9 0.00 0.97 0.97 87 1008.6
20260509011345 24 105 4.8 12.9 0.00 0.97 0.97 87 1008.6
20260509010826 24 127 3.2 11.3 0.00 0.97 0.97 87 1008.5
20260509010334 24 126 4.8 11.3 0.00 0.97 0.97 87 1008.4
20260509005819 24 121 4.8 14.5 0.00 0.97 0.97 86 1008.3
20260509005319 24 113 8.0 14.5 0.00 0.97 0.97 86 1008.3
20260509004830 24 134 8.0 12.9 0.00 0.97 0.97 86 1008.5
20260509004334 24 116 6.4 12.9 0.00 0.97 0.97 87 1008.5
20260509003821 24 101 6.4 11.3 0.00 0.97 0.97 87 1008.6
20260509003327 25 97 3.2 9.7 0.00 0.97 0.97 87 1008.6
20260509002828 25 90 3.2 11.3 0.00 0.97 0.97 87 1008.5
20260509002330 25 99 4.8 11.3 0.00 0.97 0.97 87 1008.6
20260509001837 25 88 4.8 14.5 0.00 0.97 0.97 87 1008.5
20260509001321 25 111 6.4 14.5 0.00 0.97 0.97 87 1008.6
20260509000835 25 132 6.4 14.5 0.00 0.97 0.97 87 1008.6
20260509000340 25 111 8.0 12.9 0.00 0.97 0.97 87 1008.6
20260508235845 25 132 6.4 12.9 0.00 0.97 0.97 87 1008.6
20260508235326 25 112 4.8 16.1 0.00 0.97 0.97 87 1008.5
20260508234832 25 86 3.2 16.1 0.00 0.97 0.97 87 1008.6
20260508234358 25 127 4.8 14.5 0.00 0.97 0.97 87 1008.6
20260508233849 25 111 8.0 14.5 0.00 0.97 0.97 87 1008.7
20260508233336 25 70 6.4 14.5 0.00 0.97 0.97 87 1008.6
20260508232843 25 118 6.4 14.5 0.00 0.97 0.97 87 1008.5
20260508232349 25 49 8.0 16.1 0.00 0.97 0.97 87 1008.5
20260508231829 25 63 6.4 16.1 0.00 0.97 0.97 87 1008.5
20260508231335 25 68 8.0 14.5 0.00 0.97 0.97 87 1008.5
20260508230819 25 79 8.0 12.9 0.00 0.97 0.97 87 1008.6
20260508230350 25 94 4.8 17.7 0.00 0.97 0.97 87 1008.7
20260508225849 25 88 11.3 17.7 0.00 0.97 0.97 87 1008.6
20260508225338 25 86 11.3 17.7 0.00 0.97 0.97 88 1008.6
20260508224844 25 78 4.8 9.7 0.00 0.97 0.97 87 1008.7
20260508224325 25 73 6.4 11.3 0.00 0.97 0.97 87 1008.8
20260508223829 25 51 4.8 11.3 0.00 0.97 0.97 88 1008.8
20260508223336 25 109 3.2 11.3 0.00 0.97 0.97 88 1008.9
20260508222822 25 99 4.8 9.7 0.00 0.97 0.97 88 1008.8
20260508222355 25 93 4.8 9.7 0.00 0.97 0.97 88 1008.7
20260508221840 25 99 4.8 6.4 0.00 0.97 0.97 88 1008.8
20260508221347 25 105 3.2 6.4 0.00 0.97 0.97 88 1008.9
20260508220830 25 106 0.0 1.6 0.00 0.97 0.97 88 1008.9
20260508220320 25 106 0.0 4.8 0.00 0.97 0.97 88 1009.0
20260508215850 25 106 1.6 4.8 0.00 0.97 0.97 88 1009.0
20260508215351 25 106 1.6 6.4 0.00 0.97 0.97 88 1009.1
20260508214836 25 96 3.2 12.9 0.00 0.97 0.97 88 1009.0
20260508214323 25 126 8.0 12.9 0.00 0.97 0.97 88 1009.0
20260508213857 25 148 4.8 11.3 0.00 0.97 0.97 89 1009.0